Volver al catálogo

SL-14 DEB

ActivoPO
NORAD 26024·DEBRIS·🇷🇺 Russia

Lanzado Sep 28, 1991 desde Plesetsk Cosmodrome

Loading…

Próximos Pases (próximas 24 horas)

TLE

ActualizadoSource: Space-Track

Época: Sep 13, 2026, 19:07 UTC

1 26024U 91068AK  26256.79685069  .00000619  00000-0  42420-2 0  9999
2 26024  82.7009   8.9367 0284705 178.3651 337.6299 12.34937704583513

Sigue SL-14 DEB en tiempo real con AllMySat

Download on the App Store